CW5456 Hansville WA US current weather conditions

sailwx.info

Wind from 054 at 0 knots gusting 2

Air temperature 15.0° C
Dewpoint 13.5° C

Last reported at 2017-Sep-26 19:10 UTC.
Time now 2017-Sep-26 19:56 UTC

Location: N 47°55' W 122°35'.
View on Google Maps.

See reports from other nearby stations

  
Tides and Currents Weather Stations Pressure Air Temp Water Temp Dewpoint Dewpoint Depression Visibility Wind Speed Wind Dir Waves Ship Positions
date/time (UTC)wind fromknots sea level pressurealtimeterstation pressurevisibilityair tempwater tempwave heightnotes
2017-Sep-26 19:10 054 0 gusting 2 15.0
2017-Sep-26 19:00 023 14.4
2017-Sep-26 18:50 258 2 gusting 7 14.4
2017-Sep-26 18:40 286 7 gusting 9 14.4
2017-Sep-26 18:30 290 4 gusting 6 14.4
2017-Sep-26 18:20 247 3 gusting 6 13.9
2017-Sep-26 18:10 262 4 gusting 6 13.9
2017-Sep-26 18:00 253 0 gusting 6 13.9
2017-Sep-26 17:50 251 3 gusting 6 13.9
2017-Sep-26 17:40 293 3 gusting 6 13.9
2017-Sep-26 17:30 281 2 gusting 4 13.3
2017-Sep-26 17:20 303 2 gusting 5 13.3
2017-Sep-26 17:10 275 3 gusting 6 13.3
2017-Sep-26 17:00 327 2 gusting 6 13.3
2017-Sep-26 16:50 312 2 gusting 3 13.3
2017-Sep-26 16:40 332 1 gusting 2 13.3
2017-Sep-26 16:30 349 12.8
2017-Sep-26 16:20 349 12.8
2017-Sep-26 16:10 349 12.8
2017-Sep-26 16:00 349 0 gusting 2 12.8
2017-Sep-26 15:50 349 1 gusting 3 12.8
2017-Sep-26 15:40 327 3 gusting 4 12.8
2017-Sep-26 15:30 270 3 gusting 6 12.8
2017-Sep-26 15:20 262 1 gusting 2 12.8
2017-Sep-26 15:10 262 1 gusting 3 12.2
2017-Sep-26 15:00 262 1 gusting 3 12.2
2017-Sep-26 14:50 262 1 gusting 3 12.2
2017-Sep-26 14:40 261 3 gusting 4 12.8
2017-Sep-26 14:30 260 4 gusting 6 12.8
2017-Sep-26 14:20 316 2 gusting 6 12.8
2017-Sep-26 14:09 267 2 gusting 5 12.8
2017-Sep-26 14:00 258 1 gusting 5 12.8
2017-Sep-26 13:49 282 2 gusting 5 12.8
2017-Sep-26 13:39 302 12.2
2017-Sep-26 13:29 327 0 gusting 5 12.2
2017-Sep-26 13:19 245 0 gusting 2 12.2
2017-Sep-26 13:10 245 12.8
2017-Sep-26 12:59 245 12.8
2017-Sep-26 12:50 245 12.8
2017-Sep-26 12:40 244 12.8
2017-Sep-26 12:30 245 0 gusting 5 12.8
2017-Sep-26 12:20 252 3 gusting 3 12.8
2017-Sep-26 12:10 266 1 gusting 3 12.8
2017-Sep-26 12:00 266 2 gusting 3 12.8
2017-Sep-26 11:50 275 3 gusting 4 12.8
2017-Sep-26 11:40 282 2 gusting 4 12.8
2017-Sep-26 11:30 350 12.8
2017-Sep-26 11:20 352 1 gusting 2 12.2
2017-Sep-26 11:09 351 12.2
2017-Sep-26 11:00 351 0 gusting 2 12.2
2017-Sep-26 10:50 351 12.2
2017-Sep-26 10:40 351 0 gusting 1 12.2
2017-Sep-26 10:30 350 12.2
2017-Sep-26 10:20 349 12.2
2017-Sep-26 10:10 029 12.2
2017-Sep-26 10:00 030 12.8
2017-Sep-26 09:50 030 12.8
2017-Sep-26 09:40 029 12.8
2017-Sep-26 09:30 029 12.8
2017-Sep-26 09:20 029 12.8
2017-Sep-26 09:10 029 12.8
2017-Sep-26 09:00 029 0 gusting 2 12.8
2017-Sep-26 08:50 082 0 gusting 0 12.2
2017-Sep-26 08:40 082 12.2
2017-Sep-26 08:30 082 0 gusting 1 12.8
2017-Sep-26 08:20 082 12.8
2017-Sep-26 08:10 082 2 gusting 2 12.8
2017-Sep-26 08:00 082 13.3
2017-Sep-26 07:50 082 13.3
2017-Sep-26 07:40 121 13.3
2017-Sep-26 07:30 142 13.3
2017-Sep-26 07:20 142 13.3
2017-Sep-26 07:10 142 13.3
2017-Sep-26 07:00 141 13.3
2017-Sep-26 06:50 142 13.3
2017-Sep-26 06:40 141 13.3
2017-Sep-26 06:30 142 13.3
2017-Sep-26 06:20 141 13.3
2017-Sep-26 06:10 142 13.9
2017-Sep-26 06:00 141 13.9
2017-Sep-26 05:50 141 13.9
2017-Sep-26 05:40 141 0 gusting 1 13.9
2017-Sep-26 05:30 141 0 gusting 1 13.9
2017-Sep-26 05:20 142 1 gusting 1 14.4
2017-Sep-26 05:10 144 1 gusting 3 14.4
2017-Sep-26 05:00 141 14.4
2017-Sep-26 04:50 141 14.4
2017-Sep-26 04:40 141 14.4
2017-Sep-26 04:30 140 15.0
2017-Sep-26 04:20 141 0 gusting 4 15.0
2017-Sep-26 04:10 140 15.0
2017-Sep-26 04:00 141 15.0
2017-Sep-26 03:50 141 15.0
2017-Sep-26 03:40 141 15.0
2017-Sep-26 03:30 141 15.0
2017-Sep-26 03:20 141 15.6
2017-Sep-26 03:10 141 15.6
2017-Sep-26 03:00 141 15.6
2017-Sep-26 02:50 125 16.1
2017-Sep-26 02:40 124 16.1
2017-Sep-26 02:30 142 16.1
2017-Sep-26 02:20 162 16.1
2017-Sep-26 02:10 162 16.7
2017-Sep-26 02:00 162 16.7
2017-Sep-26 01:50 162 16.7
2017-Sep-26 01:40 162 17.2
2017-Sep-26 01:30 162 17.2
2017-Sep-26 01:20 162 17.2
2017-Sep-26 01:10 162 17.2
2017-Sep-26 01:00 162 17.2
2017-Sep-26 00:50 110 17.2
2017-Sep-26 00:40 111 17.2
2017-Sep-26 00:30 135 17.2
2017-Sep-26 00:20 133 1 gusting 4 17.2
2017-Sep-26 00:10 081 17.2
2017-Sep-26 00:00 078 17.2
2017-Sep-25 23:50 078 17.2
2017-Sep-25 23:40 120 17.8
2017-Sep-25 23:30 152 17.8
2017-Sep-25 23:20 144 17.8
2017-Sep-25 23:10 141 3 gusting 6 17.2
2017-Sep-25 23:00 131 17.2
2017-Sep-25 22:50 115 3 gusting 6 17.8
2017-Sep-25 22:40 160 3 gusting 5 17.8
2017-Sep-25 22:30 115 1 gusting 7 17.2
2017-Sep-25 22:20 137 6 gusting 8 17.8
2017-Sep-25 22:10 121 6 gusting 7 17.8
2017-Sep-25 22:00 090 6 gusting 8 17.8
2017-Sep-25 21:49 147 5 gusting 5 17.8
2017-Sep-25 21:40 162 0 gusting 6 17.8
2017-Sep-25 21:29 125 4 gusting 7 17.8
2017-Sep-25 21:19 133 4 gusting 6 17.8
2017-Sep-25 21:10 204 17.8
2017-Sep-25 21:00 155 1 gusting 6 17.8
2017-Sep-25 20:50 133 1 gusting 6 17.2
2017-Sep-25 20:39 124 3 gusting 6 17.2
2017-Sep-25 20:29 145 0 gusting 4 17.8
2017-Sep-25 20:20 143 1 gusting 8 17.2
2017-Sep-25 20:10 117 0 gusting 6 16.7
2017-Sep-25 20:00 135 1 gusting 5 16.1
2017-Sep-25 19:50 143 16.1
2017-Sep-25 19:40 126 16.1
2017-Sep-25 19:30 097 4 gusting 6 16.1
2017-Sep-25 19:20 108 1 gusting 6 15.6
2017-Sep-25 19:10 108 0 gusting 5 15.6
2017-Sep-25 19:00 152 2 gusting 8 15.6
2017-Sep-25 18:50 118 3 gusting 7 15.0
2017-Sep-25 18:40 133 15.0
2017-Sep-25 18:30 122 15.0
2017-Sep-25 18:20 148 2 gusting 6 14.4
2017-Sep-25 18:10 201 2 gusting 2 14.4
2017-Sep-25 18:00 036 0 gusting 3 14.4
2017-Sep-25 17:50 154 3 gusting 4 14.4
2017-Sep-25 17:40 179 0 gusting 2 13.9
2017-Sep-25 17:30 027 13.9
2017-Sep-25 17:20 027 1 gusting 2 13.3
2017-Sep-25 17:10 027 0 gusting 3 13.3
2017-Sep-25 17:00 089 13.9
2017-Sep-25 16:50 114 0 gusting 0 13.9
2017-Sep-25 16:40 157 13.9
2017-Sep-25 16:30 157 13.3
2017-Sep-25 16:20 158 0 gusting 1 13.3
2017-Sep-25 16:10 158 13.3
2017-Sep-25 16:00 152 12.8
2017-Sep-25 15:50 152 12.8
2017-Sep-25 15:40 152 12.8
2017-Sep-25 15:30 152 12.8
2017-Sep-25 15:20 152 12.8
2017-Sep-25 15:10 152 12.8
2017-Sep-25 15:00 152 12.8
2017-Sep-25 14:50 152 12.8
2017-Sep-25 14:40 152 12.8
2017-Sep-25 14:30 152 12.2
2017-Sep-25 14:20 152 12.2
2017-Sep-25 14:10 152 12.8
2017-Sep-25 14:00 152 12.2
2017-Sep-25 13:50 152 12.2
2017-Sep-25 13:40 152 12.2
2017-Sep-25 13:30 152 12.2
2017-Sep-25 13:20 152 12.8
2017-Sep-25 13:10 152 12.2
2017-Sep-25 13:00 152 12.8
2017-Sep-25 12:50 152 12.8
2017-Sep-25 12:40 152 12.8
2017-Sep-25 12:30 152 12.8
2017-Sep-25 12:20 152 12.8
2017-Sep-25 12:10 152 12.8
2017-Sep-25 12:00 152 12.8
2017-Sep-25 11:50 152 12.8
2017-Sep-25 11:40 152 12.8
2017-Sep-25 11:30 152 12.8
2017-Sep-25 11:20 152 12.8
2017-Sep-25 11:10 152 12.8
2017-Sep-25 11:00 152 12.8
2017-Sep-25 10:50 152 12.8
2017-Sep-25 10:40 152 12.8
2017-Sep-25 10:30 152 12.8
2017-Sep-25 10:20 152 12.8
2017-Sep-25 10:10 152 12.8
2017-Sep-25 10:00 152 12.8
2017-Sep-25 09:50 152 12.8
2017-Sep-25 09:40 152 12.8
2017-Sep-25 09:30 152 12.8
2017-Sep-25 09:20 152 12.8
2017-Sep-25 09:10 152 12.8
2017-Sep-25 09:00 152 12.8
2017-Sep-25 08:50 152 12.8
2017-Sep-25 08:40 152 12.8
2017-Sep-25 08:30 152 12.8
2017-Sep-25 08:20 152 12.2
2017-Sep-25 08:10 154 12.8
2017-Sep-25 08:00 154 12.2
2017-Sep-25 07:50 154 12.2
2017-Sep-25 07:40 154 12.8
2017-Sep-25 07:30 154 1 gusting 2 12.2
2017-Sep-25 07:20 154 1 gusting 4 12.8
2017-Sep-25 07:10 145 2 gusting 4 12.8
2017-Sep-25 07:00 141 3 gusting 5 12.8
2017-Sep-25 06:50 140 5 gusting 5 12.2
2017-Sep-25 06:40 132 3 gusting 4 12.2
2017-Sep-25 06:30 132 0 gusting 3 12.2
2017-Sep-25 06:20 132 3 gusting 3 12.8
2017-Sep-25 06:10 132 0 gusting 4 12.8
2017-Sep-25 06:00 132 3 gusting 4 12.8
2017-Sep-25 05:50 132 1 gusting 3 12.8
2017-Sep-25 05:40 118 1 gusting 2 12.8
2017-Sep-25 05:30 118 0 gusting 2 12.8
2017-Sep-25 05:19 118 0 gusting 2 12.8
2017-Sep-25 05:10 117 12.8
2017-Sep-25 05:00 118 1 gusting 3 12.8
2017-Sep-25 04:50 274 12.8
2017-Sep-25 04:40 274 12.8
2017-Sep-25 04:30 274 12.8
2017-Sep-25 04:20 274 12.8
2017-Sep-25 04:10 274 12.8
2017-Sep-25 04:00 274 12.8
2017-Sep-25 03:50 273 12.8
2017-Sep-25 03:40 281 12.8
2017-Sep-25 03:30 278 1 gusting 1 13.3
2017-Sep-25 03:20 278 13.3
2017-Sep-25 03:10 286 13.3
2017-Sep-25 03:00 332 2 gusting 5 13.3
2017-Sep-25 02:50 310 2 gusting 4 13.3
2017-Sep-25 02:40 267 13.3
2017-Sep-25 02:30 263 6 gusting 9 13.3
2017-Sep-25 02:20 250 5 gusting 8 13.3
2017-Sep-25 02:10 262 13.3
2017-Sep-25 02:00 289 2 gusting 4 13.3
2017-Sep-25 01:50 281 1 gusting 5 13.9
2017-Sep-25 01:40 296 3 gusting 6 13.9
2017-Sep-25 01:30 241 0 gusting 7 14.4
2017-Sep-25 01:20 249 0 gusting 6 15.0
2017-Sep-25 01:10 262 3 gusting 6 15.0
2017-Sep-25 01:00 327 15.0
2017-Sep-25 00:50 327 1 gusting 2 15.0
2017-Sep-25 00:40 327 15.0
2017-Sep-25 00:30 327 15.0
2017-Sep-25 00:20 304 15.0
2017-Sep-25 00:10 275 2 gusting 7 14.4
2017-Sep-25 00:00 299 4 gusting 4 14.4
2017-Sep-24 23:50 016 1 gusting 1 14.4
2017-Sep-24 23:40 043 14.4
2017-Sep-24 23:30 337 2 gusting 7 13.9
2017-Sep-24 23:20 214 0 gusting 6 13.9
2017-Sep-24 23:10 218 0 gusting 11 13.9
2017-Sep-24 23:00 260 8 gusting 10 13.9
2017-Sep-24 22:50 247 7 gusting 12 15.0
2017-Sep-24 22:40 291 3 gusting 6 16.1
2017-Sep-24 22:30 026 16.1
2017-Sep-24 22:20 026 16.1
2017-Sep-24 22:10 026 16.1
2017-Sep-24 22:00 026 1 gusting 2 16.1
2017-Sep-24 21:50 026 0 gusting 2 16.1
2017-Sep-24 21:40 026 0 gusting 1 16.1
2017-Sep-24 21:30 026 0 gusting 1 16.1
2017-Sep-24 21:20 026 16.1
2017-Sep-24 21:10 026 15.6
2017-Sep-24 21:00 026 0 gusting 1 15.6
2017-Sep-24 20:50 025 0 gusting 1 15.6
2017-Sep-24 20:40 026 1 gusting 2 15.6
2017-Sep-24 20:30 025 1 gusting 2 15.0
2017-Sep-24 20:20 026 0 gusting 1 14.4
2017-Sep-24 20:10 026 14.4
2017-Sep-24 20:00 026 14.4
2017-Sep-24 19:50 026 13.9
2017-Sep-24 19:40 026 13.9
2017-Sep-24 19:30 026 13.9
2017-Sep-24 19:20 025 13.3
2017-Sep-24 19:10 026 0 gusting 1 13.3
2017-Sep-24 19:00 026 0 gusting 1 13.3